N5SRF Weather Reports


Display with metric or nautical units.
time (UTC)temp
F
wind
direction
speed
MPH
gust
MPH
rain 1hr
in
rain 24hr
in
rain mn
in
humidity
%
barometer
mb
20260905015257 78 221 0.0 0.0 0.00 0.00 0.00 97 1017.0
20260905014755 78 221 0.0 0.0 0.00 0.00 0.00 97 1017.2
20260905014252 78 221 0.0 0.0 0.00 0.00 0.00 97 1017.2
20260905013747 78 221 0.0 0.0 0.00 0.00 0.00 97 1017.0
20260905013243 78 221 0.0 0.0 0.00 0.00 0.00 97 1016.7
20260905012737 78 221 0.0 0.0 0.00 0.00 0.00 96 1017.0
20260905012233 79 221 0.0 0.0 0.00 0.00 0.00 96 1016.7
20260905011725 79 221 0.0 0.0 0.00 0.00 0.00 96 1016.7
20260905011219 79 222 0.0 0.0 0.00 0.00 0.00 96 1016.7
20260905010713 79 222 0.0 0.0 0.00 0.00 0.00 96 1016.6
20260905010203 79 222 0.0 0.0 0.00 0.00 0.00 96 1016.7
20260905005659 79 222 0.0 0.0 0.00 0.00 0.00 95 1016.3
20260905005155 79 222 0.0 0.0 0.00 0.00 0.00 95 1016.5
20260905004650 80 222 0.0 0.0 0.00 0.00 0.00 95 1016.4
20260905004145 80 222 0.0 0.0 0.00 0.00 0.00 94 1016.7
20260905003640 80 222 0.0 0.0 0.00 0.00 0.00 94 1016.6
20260905003136 80 222 0.0 0.0 0.00 0.00 0.00 94 1016.6
20260905002631 80 222 0.0 0.0 0.00 0.00 0.00 93 1016.5
20260905002125 80 222 0.0 0.0 0.00 0.00 0.00 93 1016.5
20260905001621 80 222 0.0 0.0 0.00 0.00 0.00 93 1016.7
20260905001115 80 222 0.0 0.0 0.00 0.00 0.00 92 1016.7
20260905000609 81 222 0.0 0.0 0.00 0.00 0.00 92 1016.7
20260905000106 81 222 1.0 1.0 0.00 0.00 0.00 91 1016.5
20260904235600 81 222 0.0 0.0 0.00 0.00 0.00 90 1016.5
20260904235100 81 222 0.0 0.0 0.00 0.00 0.00 90 1016.7
20260904234600 81 222 0.0 0.0 0.00 0.00 0.00 89 1016.5
20260904234056 82 222 0.0 0.0 0.00 0.00 0.00 88 1016.5
20260904233555 82 222 0.0 0.0 0.00 0.00 0.00 87 1016.4
20260904233052 82 222 0.0 0.0 0.00 0.00 0.00 86 1016.5
20260904232548 82 222 0.0 0.0 0.00 0.00 0.00 86 1016.7
20260904232045 83 222 0.0 1.0 0.00 0.00 0.00 85 1016.6
20260904231540 83 215 1.0 1.0 0.00 0.00 0.00 83 1016.8
20260904231035 83 218 0.0 0.0 0.00 0.00 0.00 83 1016.8
20260904230534 84 211 0.0 1.0 0.00 0.00 0.00 83 1016.6
20260904230030 84 204 1.0 1.0 0.00 0.00 0.00 82 1016.6
20260904225527 85 245 3.0 5.0 0.00 0.00 0.00 81 1016.6
20260904225027 86 150 1.0 1.0 0.00 0.00 0.00 84 1016.7
20260904224522 86 150 0.0 0.0 0.00 0.00 0.00 81 1016.5
20260904224017 86 157 3.0 3.0 0.00 0.00 0.00 82 1016.4
20260904223516 86 121 0.0 1.0 0.00 0.00 0.00 83 1016.4
20260904223012 86 127 0.0 1.0 0.00 0.00 0.00 83 1016.2
20260904222507 86 90 3.0 3.0 0.00 0.00 0.00 81 1016.5
20260904222002 86 148 2.0 3.0 0.00 0.00 0.00 81 1016.3
20260904221457 87 99 1.0 1.0 0.00 0.00 0.00 83 1016.5
20260904220952 87 84 2.0 3.0 0.00 0.00 0.00 80 1016.3
20260904220451 87 135 1.0 2.0 0.00 0.00 0.00 79 1016.4
20260904215947 87 112 2.0 2.0 0.00 0.00 0.00 80 1016.2
20260904215442 87 107 1.0 1.0 0.00 0.00 0.00 80 1016.5
20260904214937 88 90 2.0 2.0 0.00 0.00 0.00 79 1016.3
20260904214433 89 100 1.0 1.0 0.00 0.00 0.00 78 1016.3
20260904213933 89 100 0.0 0.0 0.00 0.00 0.00 76 1016.4
20260904213427 90 99 1.0 1.0 0.00 0.00 0.00 76 1016.3
20260904212923 91 81 2.0 3.0 0.00 0.00 0.00 73 1016.6
20260904212423 92 77 3.0 3.0 0.00 0.00 0.00 72 1016.5
20260904211918 92 82 5.0 6.0 0.00 0.00 0.00 70 1016.3
20260904211412 92 161 2.0 2.0 0.00 0.00 0.00 70 1016.4
20260904210908 92 174 1.0 2.0 0.00 0.00 0.00 72 1016.6
20260904210407 91 130 3.0 5.0 0.00 0.00 0.00 72 1016.5
20260904205904 91 169 3.0 3.0 0.00 0.00 0.00 74 1016.7
20260904205359 90 143 3.0 3.0 0.00 0.00 0.00 77 1016.7
20260904204856 90 137 2.0 3.0 0.00 0.00 0.00 77 1016.8
20260904204352 88 138 2.0 2.0 0.00 0.00 0.00 79 1017.0
20260904203848 88 188 2.0 2.0 0.00 0.00 0.00 81 1017.1
20260904203343 88 119 2.0 2.0 0.00 0.00 0.00 80 1017.1
20260904202839 89 117 4.0 5.0 0.00 0.00 0.00 78 1017.3
20260904202335 91 72 5.0 7.0 0.00 0.00 0.00 78 1017.3
20260904201831 92 93 2.0 3.0 0.00 0.00 0.00 72 1017.2
20260904201330 92 74 6.0 7.0 0.00 0.00 0.00 67 1017.3
20260904200825 92 116 3.0 5.0 0.00 0.00 0.00 70 1017.4
20260904200324 92 182 4.0 5.0 0.00 0.00 0.00 68 1017.3
20260904195819 91 134 5.0 5.0 0.00 0.00 0.00 71 1017.4
20260904195318 91 155 3.0 3.0 0.00 0.00 0.00 73 1017.5
20260904194813 91 159 1.0 1.0 0.00 0.00 0.00 72 1017.7
20260904194312 92 207 3.0 3.0 0.00 0.00 0.00 71 1017.5
20260904193807 92 153 1.0 1.0 0.00 0.00 0.00 70 1017.6
20260904193303 91 139 2.0 2.0 0.00 0.00 0.00 69 1017.9
20260904192758 91 140 2.0 2.0 0.00 0.00 0.00 69 1018.0
20260904192253 91 152 0.0 0.0 0.00 0.00 0.00 73 1017.9
20260904191750 91 141 1.0 1.0 0.00 0.00 0.00 71 1018.0
20260904191246 91 171 2.0 2.0 0.00 0.00 0.00 72 1018.0
20260904190742 93 190 2.0 2.0 0.00 0.00 0.00 69 1018.0
20260904190238 93 287 3.0 3.0 0.00 0.00 0.00 69 1018.0
20260904185734 91 102 1.0 1.0 0.00 0.00 0.00 69 1018.0
20260904185234 91 138 3.0 3.0 0.00 0.00 0.00 73 1018.0
20260904184732 90 184 2.0 2.0 0.00 0.00 0.00 74 1018.2
20260904184229 89 119 3.0 3.0 0.00 0.00 0.00 77 1018.3
20260904183724 88 145 2.0 2.0 0.00 0.00 0.00 78 1018.5
20260904183219 88 86 3.0 3.0 0.00 0.00 0.00 77 1018.6
20260904182714 89 107 2.0 2.0 0.00 0.00 0.00 77 1018.9
20260904182209 90 86 0.0 0.0 0.00 0.00 0.00 74 1018.8
20260904181705 91 205 1.0 1.0 0.00 0.00 0.00 71 1018.8
20260904181204 91 138 0.0 0.0 0.00 0.00 0.00 73 1018.9
20260904180701 91 167 0.0 0.0 0.00 0.00 0.00 74 1018.6
20260904180155 92 148 1.0 1.0 0.00 0.00 0.00 72 1018.8
20260904175654 91 184 0.0 1.0 0.00 0.00 0.00 75 1018.6
20260904175153 90 142 2.0 2.0 0.00 0.00 0.00 75 1018.8
20260904174647 91 80 4.0 6.0 0.00 0.00 0.00 75 1018.9
20260904174144 91 142 2.0 2.0 0.00 0.00 0.00 74 1018.9
20260904173639 91 75 1.0 1.0 0.00 0.00 0.00 77 1019.0
20260904173134 89 98 1.0 2.0 0.00 0.00 0.00 79 1019.1
20260904172630 88 150 0.0 0.0 0.00 0.00 0.00 83 1019.2
20260904172124 88 159 0.0 0.0 0.00 0.00 0.00 81 1019.2
20260904171619 89 170 0.0 1.0 0.00 0.00 0.00 81 1019.5
20260904171115 90 82 1.0 1.0 0.00 0.00 0.00 80 1019.5
20260904170611 88 142 1.0 1.0 0.00 0.00 0.00 83 1019.6
20260904170107 87 179 0.0 0.0 0.00 0.00 0.00 85 1019.7
20260904165605 87 92 3.0 3.0 0.00 0.00 0.00 83 1019.7
20260904165104 89 119 2.0 3.0 0.00 0.00 0.00 79 1019.6
20260904164559 90 139 1.0 1.0 0.00 0.00 0.00 72 1019.5
20260904164054 89 167 1.0 1.0 0.00 0.00 0.00 73 1019.5
20260904163549 89 157 1.0 1.0 0.00 0.00 0.00 75 1019.5
20260904163044 89 161 2.0 2.0 0.00 0.00 0.00 74 1019.7
20260904162538 91 294 3.0 3.0 0.00 0.00 0.00 74 1019.4
20260904162034 91 210 1.0 1.0 0.00 0.00 0.00 74 1019.5
20260904161529 91 165 1.0 2.0 0.00 0.00 0.00 74 1019.6
20260904161025 90 151 0.0 0.0 0.00 0.00 0.00 77 1019.6
20260904160519 89 100 3.0 5.0 0.00 0.00 0.00 78 1019.4
20260904160015 89 143 2.0 2.0 0.00 0.00 0.00 80 1019.8
20260904155509 89 154 0.0 1.0 0.00 0.00 0.00 79 1019.6
20260904155009 89 109 3.0 3.0 0.00 0.00 0.00 80 1019.5
20260904154503 88 176 1.0 1.0 0.00 0.00 0.00 81 1019.4
20260904153957 88 115 3.0 3.0 0.00 0.00 0.00 82 1019.2
20260904153452 88 165 2.0 3.0 0.00 0.00 0.00 83 1019.4
20260904152949 87 190 1.0 1.0 0.00 0.00 0.00 86 1019.5
20260904152444 86 196 1.0 1.0 0.00 0.00 0.00 87 1019.2
20260904151944 86 184 2.0 2.0 0.00 0.00 0.00 88 1019.4
20260904151438 85 133 2.0 3.0 0.00 0.00 0.00 88 1019.5
20260904150933 85 186 1.0 2.0 0.00 0.00 0.00 90 1019.4
20260904150429 85 167 4.0 5.0 0.00 0.00 0.00 90 1019.2
20260904145926 84 148 1.0 2.0 0.00 0.00 0.00 93 1019.4
20260904145422 84 174 0.0 1.0 0.00 0.00 0.00 94 1019.2
20260904144917 83 165 4.0 5.0 0.00 0.00 0.00 94 1019.5
20260904144413 82 154 2.0 2.0 0.00 0.00 0.00 96 1019.2
20260904143909 82 184 1.0 1.0 0.00 0.00 0.00 98 1019.6
20260904143405 81 168 3.0 3.0 0.00 0.00 0.00 99 1019.5
20260904142901 80 177 2.0 2.0 0.00 0.00 0.00 99 1019.6
20260904142357 80 188 2.0 2.0 0.00 0.00 0.00 99 1019.1
20260904141851 79 74 2.0 2.0 0.00 0.00 0.00 99 1019.0
20260904141346 79 142 2.0 2.0 0.00 0.00 0.00 99 1019.1
20260904140842 78 146 1.0 2.0 0.00 0.00 0.00 99 1019.4
20260904140338 78 100 2.0 3.0 0.00 0.00 0.00 99 1019.0
20260904135836 78 101 2.0 2.0 0.00 0.00 0.00 99 1019.2
20260904135332 78 160 1.0 1.0 0.00 0.00 0.00 99 1019.0
20260904134828 78 85 2.0 2.0 0.00 0.00 0.00 99 1019.0
20260904134327 78 145 1.0 2.0 0.00 0.00 0.00 99 1018.9
20260904133821 77 137 1.0 2.0 0.00 0.00 0.00 99 1018.9
20260904133317 77 154 2.0 2.0 0.00 0.00 0.00 99 1018.7
20260904132818 77 85 1.0 2.0 0.00 0.00 0.00 99 1018.8
20260904132313 77 117 2.0 2.0 0.00 0.00 0.00 99 1018.9
20260904131812 77 148 2.0 2.0 0.00 0.00 0.00 99 1018.9
20260904131308 77 113 2.0 2.0 0.00 0.00 0.00 99 1018.9
20260904130807 77 106 2.0 2.0 0.00 0.00 0.00 99 1018.9
20260904130307 77 100 1.0 1.0 0.00 0.00 0.00 99 1018.5
20260904125803 77 107 2.0 2.0 0.00 0.00 0.00 99 1018.8
20260904125259 78 112 1.0 2.0 0.00 0.00 0.00 99 1018.5
20260904124758 77 156 0.0 0.0 0.00 0.00 0.00 99 1018.4
20260904124255 77 155 0.0 1.0 0.00 0.00 0.00 99 1018.4
20260904123750 77 167 0.0 0.0 0.00 0.00 0.00 99 1018.4
20260904123245 77 167 0.0 0.0 0.00 0.00 0.00 99 1018.2
20260904122739 76 168 0.0 0.0 0.00 0.00 0.00 99 1018.0
20260904122234 76 167 0.0 0.0 0.00 0.00 0.00 99 1018.2
20260904121730 76 167 0.0 0.0 0.00 0.00 0.00 99 1017.9
20260904121225 75 167 0.0 0.0 0.00 0.00 0.00 99 1018.2
20260904120721 75 167 0.0 0.0 0.00 0.00 0.00 99 1017.9
20260904120212 75 167 0.0 0.0 0.00 0.00 0.00 99 1018.0
20260904115706 75 167 0.0 0.0 0.00 0.00 0.00 99 1017.9
20260904115201 75 167 0.0 0.0 0.00 0.00 0.00 99 1017.9
20260904114700 75 167 0.0 0.0 0.00 0.00 0.00 99 1017.9
20260904114155 75 167 0.0 0.0 0.00 0.00 0.00 99 1017.9
20260904113650 75 167 0.0 0.0 0.00 0.00 0.00 99 1018.3
20260904113149 75 167 0.0 0.0 0.00 0.00 0.00 99 1018.1
20260904112645 75 167 0.0 0.0 0.00 0.00 0.00 99 1018.1
20260904112141 75 167 0.0 0.0 0.00 0.00 0.00 99 1017.8
20260904111636 75 167 0.0 0.0 0.00 0.00 0.00 99 1017.8
20260904111131 75 157 0.0 0.0 0.00 0.00 0.00 99 1017.7
20260904110626 75 157 0.0 0.0 0.00 0.00 0.00 99 1017.9
20260904110121 75 157 0.0 0.0 0.00 0.00 0.00 99 1017.8
20260904105621 75 157 0.0 0.0 0.00 0.00 0.00 99 1017.8
20260904105116 75 157 0.0 0.0 0.00 0.00 0.00 99 1017.7
20260904104611 75 157 0.0 0.0 0.00 0.00 0.00 99 1017.7
20260904104107 75 157 0.0 0.0 0.00 0.00 0.00 99 1017.7
20260904103603 75 157 0.0 0.0 0.00 0.00 0.00 99 1017.7
20260904103058 75 151 0.0 0.0 0.00 0.00 0.00 99 1017.5
20260904102554 75 164 0.0 1.0 0.00 0.00 0.00 99 1017.5
20260904102049 75 166 0.0 0.0 0.00 0.00 0.00 99 1017.6
20260904101546 75 166 0.0 0.0 0.00 0.00 0.00 99 1017.6
20260904101041 76 166 0.0 0.0 0.00 0.00 0.00 99 1017.5
20260904100537 76 166 0.0 0.0 0.00 0.00 0.00 99 1017.4
20260904100031 76 166 0.0 0.0 0.00 0.00 0.00 99 1017.5
20260904095526 76 166 0.0 0.0 0.00 0.00 0.00 99 1017.5
20260904095021 76 166 0.0 0.0 0.00 0.00 0.00 99 1017.4
20260904094515 76 166 0.0 0.0 0.00 0.00 0.00 99 1017.6
20260904094011 76 166 0.0 0.0 0.00 0.00 0.00 99 1017.3
20260904093508 76 166 0.0 0.0 0.00 0.00 0.00 99 1017.3
20260904093002 76 166 0.0 0.0 0.00 0.00 0.00 99 1017.2
20260904092458 76 166 0.0 0.0 0.00 0.00 0.00 99 1017.3
20260904091954 76 166 0.0 0.0 0.00 0.00 0.00 99 1017.1
20260904091450 76 166 0.0 0.0 0.00 0.00 0.00 99 1017.3
20260904090944 76 166 0.0 0.0 0.00 0.00 0.00 99 1017.2
20260904090440 76 166 0.0 0.0 0.00 0.00 0.00 99 1017.4
20260904085935 76 166 0.0 0.0 0.00 0.00 0.00 99 1017.3
20260904085430 76 166 0.0 1.0 0.00 0.00 0.00 99 1017.5
20260904084925 76 167 0.0 0.0 0.00 0.00 0.00 99 1017.3
20260904084422 76 165 1.0 1.0 0.00 0.00 0.00 99 1017.3
20260904083916 76 168 0.0 0.0 0.00 0.00 0.00 99 1017.4
20260904083413 77 168 0.0 0.0 0.00 0.00 0.00 99 1017.4
20260904082903 77 168 0.0 0.0 0.00 0.00 0.00 99 1017.4
20260904082403 77 172 0.0 0.0 0.00 0.00 0.00 99 1017.3
20260904081858 77 157 0.0 0.0 0.00 0.00 0.00 99 1017.6
20260904081353 77 152 0.0 1.0 0.00 0.00 0.00 99 1017.4
20260904080849 77 162 0.0 0.0 0.00 0.00 0.00 99 1017.5
20260904080344 77 181 0.0 0.0 0.00 0.00 0.00 99 1017.4
20260904075841 77 182 0.0 0.0 0.00 0.00 0.00 99 1017.6
20260904075335 77 182 0.0 0.0 0.00 0.00 0.00 99 1017.3
20260904074829 77 182 0.0 0.0 0.00 0.00 0.00 99 1017.4
20260904074324 77 182 0.0 0.0 0.00 0.00 0.00 99 1017.1
20260904073819 77 181 0.0 0.0 0.00 0.00 0.00 99 1017.2
20260904073315 77 182 0.0 0.0 0.00 0.00 0.00 99 1017.0
20260904072811 77 182 0.0 0.0 0.00 0.00 0.00 99 1017.2
20260904072310 77 182 0.0 0.0 0.00 0.00 0.00 99 1017.3
20260904071806 77 189 0.0 0.0 0.00 0.00 0.00 99 1017.2
20260904071300 78 171 1.0 1.0 0.00 0.00 0.00 99 1017.1
20260904070755 77 154 0.0 0.0 0.00 0.00 0.00 99 1017.3
20260904070254 77 188 0.0 1.0 0.00 0.00 0.00 99 1017.3
20260904065749 77 164 0.0 0.0 0.00 0.00 0.00 99 1017.1
20260904065246 77 202 0.0 0.0 0.00 0.00 0.00 99 1017.4
20260904064745 77 202 0.0 0.0 0.00 0.00 0.00 99 1017.4
20260904064241 77 193 0.0 0.0 0.00 0.00 0.00 99 1017.4
20260904063737 77 192 0.0 0.0 0.00 0.00 0.00 99 1017.3
20260904063233 77 175 0.0 0.0 0.00 0.00 0.00 99 1017.4
20260904062728 77 175 0.0 0.0 0.00 0.00 0.00 99 1017.5
20260904062224 77 180 0.0 0.0 0.00 0.00 0.00 99 1017.1
20260904061720 77 204 0.0 0.0 0.00 0.00 0.00 99 1017.3
20260904061216 77 170 0.0 0.0 0.00 0.00 0.00 99 1017.4
20260904060713 77 181 0.0 0.0 0.00 0.00 0.00 99 1017.3
20260904060208 77 204 0.0 0.0 0.00 0.00 0.00 99 1017.4
20260904055703 77 184 0.0 0.0 0.00 0.16 0.16 99 1017.3
20260904055158 77 185 0.0 0.0 0.00 0.16 0.16 99 1017.2
20260904054654 77 184 0.0 0.0 0.00 0.16 0.16 99 1017.4
20260904054149 77 184 0.0 0.0 0.00 0.16 0.16 99 1017.5
20260904053643 77 184 0.0 0.0 0.00 0.16 0.16 99 1017.3
20260904053138 77 184 0.0 0.0 0.00 0.16 0.16 99 1017.6
20260904052635 77 184 0.0 0.0 0.00 0.16 0.16 99 1017.5
20260904052130 77 184 0.0 0.0 0.00 0.16 0.16 99 1017.5
20260904051626 77 183 0.0 0.0 0.00 0.16 0.16 99 1017.6
20260904051121 77 183 0.0 1.0 0.00 0.16 0.16 99 1017.4
20260904050617 77 183 0.0 0.0 0.00 0.16 0.16 99 1017.4
20260904050113 77 183 0.0 0.0 0.00 0.16 0.16 99 1017.3
20260904045608 77 183 0.0 0.0 0.00 0.16 0.16 99 1017.5
20260904045102 77 183 0.0 0.0 0.00 0.16 0.16 99 1017.7
20260904044558 77 183 0.0 0.0 0.00 0.16 0.16 99 1017.5
20260904044054 77 183 0.0 0.0 0.00 0.16 0.16 99 1017.5
20260904043550 77 184 0.0 0.0 0.00 0.16 0.16 99 1017.6
20260904043046 77 184 0.0 0.0 0.00 0.16 0.16 99 1017.3
20260904042542 78 184 0.0 0.0 0.00 0.16 0.16 99 1017.5
20260904042037 78 184 0.0 0.0 0.00 0.16 0.16 99 1017.5
20260904041533 78 182 0.0 0.0 0.00 0.16 0.16 99 1017.5
20260904041029 78 182 0.0 0.0 0.00 0.16 0.16 99 1017.5
20260904040528 78 162 0.0 0.0 0.00 0.16 0.16 99 1017.3
20260904040025 78 163 0.0 0.0 0.00 0.16 0.16 99 1017.3
20260904035520 78 129 1.0 1.0 0.00 0.16 0.16 99 1017.6
20260904035019 78 181 0.0 0.0 0.00 0.16 0.16 99 1017.5
20260904034514 78 175 1.0 1.0 0.00 0.16 0.16 99 1017.5
20260904034010 78 194 0.0 0.0 0.00 0.16 0.16 99 1017.5
20260904033506 78 170 0.0 0.0 0.00 0.16 0.16 99 1017.3
20260904033003 78 184 1.0 1.0 0.00 0.16 0.16 99 1017.3
20260904032457 78 173 1.0 1.0 0.00 0.16 0.16 99 1017.3
20260904031956 78 168 1.0 1.0 0.00 0.16 0.16 99 1017.3
20260904031452 78 177 0.0 1.0 0.00 0.16 0.16 99 1017.3
20260904030948 78 167 1.0 1.0 0.00 0.16 0.16 99 1017.2
20260904030443 78 199 1.0 1.0 0.00 0.16 0.16 99 1017.2
20260904025937 78 194 0.0 0.0 0.00 0.16 0.16 99 1017.4
20260904025434 78 195 0.0 0.0 0.00 0.16 0.16 99 1017.3
20260904024928 77 195 0.0 1.0 0.00 0.16 0.16 99 1017.2
20260904024424 77 193 0.0 0.0 0.00 0.16 0.16 99 1017.0
20260904023919 77 157 0.0 0.0 0.00 0.16 0.16 99 1017.3
20260904023416 77 136 1.0 2.0 0.00 0.16 0.16 99 1017.1
20260904022915 77 161 0.0 0.0 0.00 0.16 0.16 99 1017.4
20260904022412 77 178 0.0 0.0 0.00 0.16 0.16 99 1017.0
20260904021907 77 178 0.0 0.0 0.00 0.16 0.16 99 1017.1
20260904021402 77 179 0.0 0.0 0.00 0.16 0.16 99 1017.0
20260904020852 77 178 0.0 0.0 0.00 0.16 0.16 99 1017.0
20260904020347 77 178 0.0 0.0 0.00 0.16 0.16 99 1016.9
20260904015846 77 178 0.0 0.0 0.00 0.16 0.16 99 1016.9